This is the latest recevied weather packets stored in our database for station/object CA4LJZ-10. If no packets are shown the sender has not sent any weather packets the latest 10 day(s).
| Time | Temp. | Humidity | Pressure | Rain* | Wind** | Luminosity | Snow |
|---|---|---|---|---|---|---|---|
| 1777793662 | 12.22° C | 57% | 954.9 hPa | - | - | - | - |
| 1777792761 | 12.78° C | 57% | 955 hPa | - | - | - | - |
| 1777791860 | 12.78° C | 56% | 954.8 hPa | - | - | - | - |
| 1777790959 | 12.78° C | 56% | 954.9 hPa | - | - | - | - |
| 1777790058 | 12.78° C | 57% | 954.9 hPa | - | - | - | - |
| 1777789157 | 12.78° C | 56% | 954.4 hPa | - | - | - | - |
| 1777788256 | 13.33° C | 56% | 954.3 hPa | - | - | - | - |
| 1777787355 | 13.33° C | 57% | 954.2 hPa | - | - | - | - |
| 1777786454 | 13.33° C | 56% | 954.3 hPa | - | - | - | - |
| 1777785553 | 13.33° C | 57% | 954.4 hPa | - | - | - | - |
| 1777784690 | 13.33° C | 56% | 954.4 hPa | - | - | - | - |
| 1777784652 | 13.33° C | 56% | 954.4 hPa | - | - | - | - |
| 1777783751 | 13.89° C | 55% | 954.5 hPa | - | - | - | - |
| 1777782850 | 13.89° C | 56% | 955 hPa | - | - | - | - |
| 1777781949 | 15.56° C | 56% | 955 hPa | - | - | - | - |
| 1777781072 | 13.89° C | 55% | 955.2 hPa | - | - | - | - |
| 1777780171 | 14.44° C | 54% | 955.2 hPa | - | - | - | - |
| 1777779270 | 14.44° C | 52% | 955.2 hPa | - | - | - | - |
| 1777778368 | 15° C | 53% | 955.1 hPa | - | - | - | - |
| 1777777467 | 15° C | 51% | 955 hPa | - | - | - | - |
| 1777776566 | 15° C | 50% | 954.8 hPa | - | - | - | - |
| 1777775951 | 15° C | 50% | 954.7 hPa | - | - | - | - |
| 1777775665 | 15° C | 50% | 954.7 hPa | - | - | - | - |
| 1777768458 | 17.22° C | 45% | 955 hPa | - | - | - | - |
| 1777767723 | 17.22° C | 45% | 954.8 hPa | - | - | - | - |
* Rain since midnight (hover to see other rain measurements)
** Current wind speed in m/s (hover to see current wind gust speed)